FW3572 Weather Reports


time (UTC)temp
C
wind
direction
speed
KPH
gust
KPH
rain 1hr
cm
rain 24hr
cm
rain mn
cm
humidity
%
barometer
mb
20260901173509 31 63 11.3 24.1 0.00 0.05 0.03 100 1017.4
20260901173007 31 29 8.0 17.7 0.00 0.05 0.03 100 1017.6
20260901172510 31 107 1.6 16.1 0.00 0.05 0.03 100 1017.8
20260901172004 31 79 1.6 16.1 0.00 0.05 0.03 100 1017.8
20260901171502 31 126 4.8 20.9 0.00 0.05 0.03 100 1018.0
20260901171001 31 67 6.4 20.9 0.00 0.05 0.03 100 1018.0
20260901170600 31 360 6.4 19.3 0.00 0.05 0.03 100 1018.1
20260901170101 31 11 9.7 19.3 0.00 0.05 0.03 100 1018.1
20260901165556 31 56 6.4 19.3 0.00 0.05 0.03 100 1018.1
20260901165058 31 102 3.2 20.9 0.00 0.05 0.03 100 1017.9
20260901164556 31 355 8.0 20.9 0.00 0.05 0.03 100 1018.0
20260901164054 31 347 9.7 20.9 0.00 0.05 0.03 100 1018.1
20260901163551 31 112 1.6 14.5 0.00 0.05 0.03 100 1018.1
20260901163049 31 21 3.2 16.1 0.00 0.05 0.03 100 1018.1
20260901162548 31 9 4.8 16.1 0.00 0.05 0.03 100 1018.1
20260901162047 31 346 4.8 14.5 0.00 0.05 0.03 100 1018.3
20260901161602 31 39 4.8 16.1 0.00 0.05 0.03 100 1018.2
20260901161048 31 336 8.0 16.1 0.00 0.05 0.03 100 1018.2
20260901160543 31 38 3.2 16.1 0.00 0.05 0.03 100 1018.3
20260901160104 31 36 6.4 17.7 0.00 0.05 0.03 100 1018.3
20260901155543 31 50 4.8 17.7 0.00 0.05 0.03 100 1018.3
20260901155043 31 325 6.4 17.7 0.00 0.05 0.03 100 1018.3
20260901154541 31 319 3.2 19.3 0.00 0.05 0.03 100 1018.2
20260901154040 31 17 6.4 19.3 0.00 0.05 0.03 100 1018.3
20260901153539 31 31 8.0 19.3 0.00 0.05 0.03 100 1018.3
20260901153037 31 58 4.8 14.5 0.00 0.05 0.03 100 1018.4
20260901152535 31 39 6.4 17.7 0.00 0.05 0.03 100 1018.5
20260901152034 31 44 4.8 17.7 0.00 0.05 0.03 100 1018.5
20260901151532 31 138 1.6 12.9 0.00 0.05 0.03 100 1018.5
20260901151031 31 40 4.8 14.5 0.00 0.05 0.03 100 1018.4
20260901150531 30 5 4.8 17.7 0.00 0.05 0.03 100 1018.5
20260901150028 31 360 8.0 17.7 0.00 0.05 0.03 100 1018.4
20260901145526 31 360 4.8 14.5 0.00 0.05 0.03 100 1018.4
20260901145025 31 5 3.2 12.9 0.00 0.05 0.03 100 1018.3
20260901144523 30 355 1.6 12.9 0.00 0.05 0.03 100 1018.3
20260901144021 30 75 3.2 12.9 0.00 0.05 0.03 100 1018.3
20260901143520 30 28 3.2 14.5 0.00 0.05 0.03 100 1018.3
20260901143021 30 346 1.6 14.5 0.00 0.05 0.03 100 1018.1
20260901142518 30 22 1.6 12.9 0.00 0.05 0.03 100 1018.1
20260901142016 30 323 3.2 14.5 0.00 0.05 0.03 100 1018.1
20260901141514 30 340 4.8 14.5 0.00 0.05 0.03 100 1018.0
20260901141016 29 12 3.2 12.9 0.00 0.05 0.03 100 1017.9
20260901140513 29 360 1.6 14.5 0.00 0.05 0.03 100 1017.9
20260901140012 29 5 4.8 14.5 0.00 0.05 0.03 100 1018.0
20260901135513 29 52 3.2 9.7 0.00 0.05 0.03 100 1018.0
20260901135013 29 10 1.6 9.7 0.00 0.05 0.03 100 1017.9
20260901134513 29 11 1.6 9.7 0.00 0.05 0.03 100 1018.0
20260901134011 29 344 3.2 9.7 0.00 0.05 0.03 100 1018.0
20260901133507 29 16 3.2 9.7 0.00 0.05 0.03 100 1018.0
20260901133006 29 19 3.2 9.7 0.00 0.05 0.03 100 1017.9
20260901132506 28 339 4.8 9.7 0.00 0.05 0.03 100 1017.9
20260901132005 28 336 1.6 9.7 0.00 0.05 0.03 100 1017.9
20260901131503 28 355 3.2 11.3 0.00 0.05 0.03 100 1018.0
20260901131003 28 5 3.2 9.7 0.00 0.05 0.03 100 1018.0
20260901130503 28 11 0.0 8.0 0.00 0.05 0.03 100 1018.0
20260901130001 28 329 1.6 8.0 0.00 0.05 0.03 100 1017.9
20260901125600 28 43 0.0 6.4 0.00 0.05 0.03 100 1017.8
20260901125059 28 340 0.0 8.0 0.00 0.05 0.03 100 1017.7
20260901124605 27 360 0.0 8.0 0.00 0.05 0.03 100 1017.8
20260901124057 27 355 0.0 0.0 0.00 0.05 0.03 100 1017.7
20260901123558 27 336 0.0 0.0 0.00 0.05 0.03 100 1017.8
20260901123114 27 342 0.0 0.0 0.00 0.05 0.03 100 1017.8
20260901122558 26 343 0.0 0.0 0.00 0.05 0.03 100 1017.7
20260901122101 26 342 0.0 0.0 0.00 0.05 0.03 100 1017.7
20260901121559 26 344 0.0 0.0 0.00 0.05 0.03 100 1017.7
20260901121057 26 343 0.0 3.2 0.00 0.05 0.03 100 1017.6
20260901120557 25 345 0.0 8.0 0.00 0.05 0.03 100 1017.6
20260901120101 25 346 0.0 8.0 0.00 0.05 0.03 100 1017.6
20260901115557 25 337 0.0 4.8 0.00 0.05 0.03 100 1017.5
20260901115056 25 338 1.6 4.8 0.00 0.05 0.03 100 1017.4
20260901114603 25 325 0.0 0.0 0.00 0.05 0.03 100 1017.4
20260901114055 25 313 0.0 0.0 0.00 0.05 0.03 100 1017.4
20260901113557 25 313 0.0 0.0 0.00 0.05 0.03 100 1017.2
20260901113101 25 313 0.0 0.0 0.00 0.05 0.03 100 1017.1
20260901112556 25 313 0.0 0.0 0.00 0.05 0.03 100 1017.0
20260901112054 25 314 0.0 0.0 0.00 0.05 0.03 100 1017.0
20260901111606 25 314 0.0 0.0 0.00 0.05 0.03 100 1017.0
20260901111057 25 314 0.0 0.0 0.00 0.05 0.03 100 1016.9
20260901110553 25 314 0.0 0.0 0.00 0.05 0.03 100 1016.8
20260901110054 25 314 0.0 0.0 0.00 0.05 0.03 100 1016.8
20260901105553 25 315 0.0 0.0 0.00 0.05 0.03 100 1016.7
20260901105053 25 315 0.0 0.0 0.00 0.05 0.03 100 1016.6
20260901104553 25 315 0.0 0.0 0.00 0.05 0.03 100 1016.7
20260901104053 25 315 0.0 0.0 0.00 0.05 0.03 100 1016.7
20260901103553 25 315 0.0 0.0 0.00 0.05 0.03 100 1016.7
20260901103052 25 315 0.0 0.0 0.00 0.05 0.03 100 1016.8
20260901102552 25 315 0.0 0.0 0.00 0.05 0.03 100 1016.7
20260901102053 25 315 0.0 0.0 0.00 0.05 0.03 100 1016.8
20260901101553 25 315 0.0 0.0 0.00 0.05 0.03 100 1016.7
20260901101051 25 315 0.0 0.0 0.00 0.05 0.03 100 1016.7
20260901100552 25 315 0.0 0.0 0.00 0.05 0.03 100 1016.6
20260901100055 25 315 0.0 0.0 0.00 0.05 0.03 100 1016.7
20260901095550 25 315 0.0 0.0 0.00 0.05 0.03 100 1016.7
20260901095052 25 315 0.0 0.0 0.00 0.05 0.03 100 1016.7
20260901094550 25 315 0.0 0.0 0.00 0.05 0.03 100 1016.7
20260901094051 25 315 0.0 0.0 0.00 0.05 0.03 100 1016.6
20260901093551 25 316 0.0 0.0 0.00 0.05 0.03 100 1016.7
20260901093052 25 316 0.0 0.0 0.00 0.05 0.03 100 1016.6
20260901092549 25 312 0.0 0.0 0.00 0.05 0.03 100 1016.6
20260901092049 25 312 0.0 0.0 0.00 0.05 0.03 100 1016.7
20260901091549 25 312 0.0 0.0 0.00 0.05 0.03 100 1016.6
20260901091049 25 312 0.0 0.0 0.00 0.05 0.03 100 1016.6
20260901090552 25 311 0.0 0.0 0.00 0.05 0.03 100 1016.7
20260901090048 25 309 0.0 0.0 0.00 0.05 0.03 100 1016.6
20260901085548 25 309 0.0 0.0 0.00 0.05 0.03 100 1016.7
20260901085048 25 309 0.0 0.0 0.00 0.05 0.03 100 1016.7
20260901084548 25 309 0.0 0.0 0.00 0.05 0.03 100 1016.5
20260901084052 25 309 0.0 0.0 0.00 0.05 0.03 100 1016.6
20260901083547 25 308 0.0 0.0 0.00 0.05 0.03 100 1016.5
20260901083048 25 309 0.0 0.0 0.00 0.05 0.03 100 1016.6
20260901082547 25 309 0.0 0.0 0.00 0.05 0.03 100 1016.6
20260901082047 25 210 0.0 0.0 0.00 0.05 0.03 100 1016.6
20260901081547 25 210 0.0 0.0 0.00 0.05 0.03 100 1016.5
20260901081046 25 210 0.0 0.0 0.00 0.05 0.03 100 1016.6
20260901080545 26 210 0.0 0.0 0.00 0.05 0.03 100 1016.6
20260901080046 26 210 0.0 0.0 0.00 0.05 0.03 100 1016.6
20260901075545 26 210 0.0 0.0 0.00 0.05 0.03 100 1016.6
20260901075043 25 210 0.0 0.0 0.00 0.05 0.03 100 1016.7
20260901074548 25 210 0.0 0.0 0.00 0.05 0.03 100 1016.7
20260901074045 25 210 0.0 0.0 0.00 0.05 0.03 100 1016.9
20260901073543 25 210 0.0 0.0 0.00 0.05 0.03 100 1016.8
20260901073043 25 210 0.0 0.0 0.00 0.05 0.03 100 1017.0
20260901072544 25 210 0.0 0.0 0.00 0.05 0.03 100 1016.9
20260901072044 25 210 0.0 0.0 0.00 0.05 0.03 100 1017.1
20260901071542 25 210 0.0 0.0 0.00 0.05 0.03 100 1017.0
20260901071042 25 210 0.0 0.0 0.00 0.05 0.03 100 1017.0
20260901070540 26 211 0.0 0.0 0.00 0.05 0.03 100 1017.1
20260901070040 26 213 0.0 0.0 0.00 0.05 0.03 100 1017.1
20260901065540 26 213 0.0 0.0 0.00 0.05 0.03 100 1017.2
20260901065040 26 213 0.0 0.0 0.00 0.05 0.03 100 1017.2
20260901064539 26 212 0.0 0.0 0.00 0.05 0.03 100 1017.2
20260901064043 26 211 0.0 0.0 0.00 0.05 0.03 100 1017.2
20260901063539 26 199 0.0 4.8 0.00 0.05 0.03 100 1017.2
20260901063051 26 190 0.0 4.8 0.00 0.05 0.03 100 1017.4
20260901062539 26 178 0.0 0.0 0.00 0.05 0.03 100 1017.3
20260901062038 26 178 0.0 0.0 0.00 0.05 0.03 100 1017.3
20260901061545 26 178 0.0 0.0 0.00 0.05 0.03 100 1017.4
20260901061037 26 178 0.0 0.0 0.00 0.05 0.03 100 1017.5
20260901060538 26 178 0.0 0.0 0.00 0.05 0.03 100 1017.4
20260901060037 26 178 0.0 0.0 0.00 0.05 0.03 100 1017.4
20260901055536 25 178 0.0 0.0 0.00 0.05 0.03 100 1017.6
20260901055036 26 178 0.0 0.0 0.03 0.05 0.03 100 1017.6
20260901054537 25 178 0.0 0.0 0.03 0.05 0.03 100 1017.6
20260901054036 25 178 0.0 0.0 0.03 0.05 0.03 100 1017.7
20260901053539 25 178 0.0 0.0 0.03 0.05 0.03 100 1017.8
20260901053034 26 178 0.0 4.8 0.03 0.05 0.03 100 1017.8
20260901052532 25 178 0.0 6.4 0.03 0.05 0.03 100 1017.8
20260901052031 26 178 1.6 9.7 0.03 0.05 0.03 100 1017.9
20260901051537 26 179 3.2 12.9 0.03 0.05 0.03 100 1018.0
20260901051029 26 184 4.8 12.9 0.03 0.05 0.03 100 1018.1
20260901050528 26 152 6.4 12.9 0.03 0.05 0.03 100 1018.1
20260901050027 27 165 1.6 9.7 0.03 0.05 0.03 100 1018.1
20260901045530 27 165 3.2 16.1 0.03 0.05 0.03 100 1018.1
20260901045028 27 132 8.0 16.1 0.00 0.03 0.00 100 1018.1
20260901044524 27 146 0.0 0.0 0.00 0.03 0.00 100 1018.1
20260901044024 27 146 0.0 0.0 0.00 0.03 0.00 100 1018.2
20260901043523 27 146 0.0 0.0 0.00 0.03 0.00 100 1018.1
20260901043031 27 146 0.0 4.8 0.00 0.03 0.00 100 1018.1
20260901042524 27 146 0.0 4.8 0.00 0.03 0.00 100 1018.1
20260901042023 27 121 0.0 4.8 0.00 0.03 0.00 100 1018.1
20260901041522 27 116 0.0 0.0 0.00 0.03 0.00 100 1018.1
20260901041022 27 116 0.0 0.0 0.00 0.03 0.00 100 1018.2
20260901040527 27 116 0.0 0.0 0.00 0.03 0.00 100 1018.2
20260901040024 27 116 0.0 0.0 0.00 0.03 0.00 100 1018.1
20260901035522 27 116 0.0 0.0 0.00 0.03 0.00 100 1018.1
20260901035022 27 116 0.0 0.0 0.00 0.03 0.00 100 1018.1
20260901034520 27 116 0.0 0.0 0.00 0.03 0.03 100 1018.1
20260901034020 27 116 0.0 0.0 0.00 0.03 0.03 100 1018.1
20260901033520 27 116 0.0 0.0 0.00 0.03 0.03 100 1018.2
20260901033021 27 116 0.0 1.6 0.00 0.03 0.03 100 1018.3
20260901032520 27 116 0.0 1.6 0.00 0.03 0.03 100 1018.3
20260901032020 27 116 0.0 1.6 0.00 0.03 0.03 100 1018.3
20260901031520 27 116 0.0 0.0 0.00 0.03 0.03 100 1018.3
20260901031019 27 116 0.0 4.8 0.00 0.03 0.03 100 1018.3
20260901030519 27 116 0.0 4.8 0.00 0.03 0.03 100 1018.3
20260901030020 27 116 0.0 3.2 0.00 0.03 0.03 100 1018.3
20260901025519 27 116 0.0 4.8 0.00 0.03 0.03 100 1018.3
20260901025019 27 116 1.6 6.4 0.00 0.03 0.03 100 1018.3
20260901024519 27 115 0.0 6.4 0.00 0.03 0.03 100 1018.4
20260901024022 27 121 1.6 6.4 0.00 0.03 0.03 100 1018.5
20260901023518 27 117 0.0 6.4 0.00 0.03 0.03 100 1018.6
20260901023028 27 115 1.6 6.4 0.00 0.03 0.03 100 1018.6
20260901022521 27 108 1.6 6.4 0.00 0.03 0.03 100 1018.6
20260901022018 27 99 0.0 6.4 0.00 0.03 0.03 100 1018.5
20260901021518 27 16 0.0 1.6 0.00 0.03 0.03 100 1018.3
20260901021019 27 16 0.0 1.6 0.00 0.03 0.03 100 1018.2
20260901020520 27 16 0.0 0.0 0.00 0.03 0.03 100 1018.1
20260901020019 27 16 0.0 3.2 0.00 0.03 0.03 100 1018.1
20260901015517 27 16 0.0 4.8 0.00 0.03 0.03 100 1018.1
20260901015021 27 15 0.0 4.8 0.00 0.03 0.03 100 1018.0
20260901014517 27 13 0.0 4.8 0.00 0.03 0.03 100 1017.9
20260901014016 27 5 1.6 4.8 0.00 0.03 0.03 100 1017.8
20260901013517 27 5 0.0 0.0 0.00 0.03 0.03 100 1017.8
20260901013017 27 9 0.0 0.0 0.00 0.03 0.03 100 1017.8
20260901012516 27 15 0.0 0.0 0.00 0.03 0.03 100 1017.8
20260901012016 27 17 0.0 0.0 0.00 0.03 0.03 100 1017.8
20260901011517 27 18 0.0 0.0 0.00 0.03 0.03 100 1017.7
20260901011015 27 18 0.0 0.0 0.00 0.03 0.03 100 1017.7
20260901010520 27 29 0.0 0.0 0.00 0.03 0.03 100 1017.7
20260901010017 27 32 0.0 0.0 0.00 0.03 0.03 100 1017.7
20260901005515 27 32 0.0 4.8 0.00 0.03 0.03 100 1017.6
20260901005018 27 33 0.0 4.8 0.00 0.03 0.03 100 1017.6
20260901004516 27 40 0.0 4.8 0.00 0.03 0.03 100 1017.7
20260901004015 27 17 0.0 6.4 0.00 0.03 0.03 100 1017.7
20260901003515 27 346 1.6 6.4 0.00 0.03 0.03 100 1017.7
20260901003015 27 45 1.6 4.8 0.00 0.03 0.03 100 1017.7
20260901002514 27 49 1.6 4.8 0.00 0.03 0.03 100 1017.6
20260901002014 27 19 0.0 4.8 0.00 0.03 0.03 100 1017.5
20260901001516 27 78 0.0 4.8 0.00 0.03 0.03 100 1017.5
20260901001017 27 36 0.0 4.8 0.00 0.03 0.03 100 1017.6
20260901000513 27 15 0.0 4.8 0.00 0.03 0.03 100 1017.5
20260901000013 27 11 0.0 4.8 0.00 0.03 0.03 100 1017.6
20260831235513 27 5 0.0 4.8 0.00 0.03 0.03 100 1017.6
20260831235013 27 5 0.0 4.8 0.00 0.03 0.03 100 1017.6
20260831234514 27 5 0.0 6.4 0.00 0.03 0.03 100 1017.5
20260831234012 27 346 1.6 8.0 0.00 0.03 0.03 100 1017.5
20260831233513 27 355 1.6 8.0 0.00 0.03 0.03 100 1017.5
20260831233012 27 9 0.0 6.4 0.00 0.03 0.03 100 1017.5
20260831232512 27 360 0.0 8.0 0.00 0.03 0.03 100 1017.5
20260831232012 27 355 3.2 8.0 0.00 0.03 0.03 100 1017.4
20260831231511 27 355 1.6 6.4 0.00 0.03 0.03 100 1017.3
20260831231011 27 5 0.0 8.0 0.00 0.03 0.03 100 1017.3
20260831230513 27 15 1.6 8.0 0.00 0.03 0.03 100 1017.4
20260831230012 27 329 0.0 8.0 0.00 0.03 0.03 100 1017.4
20260831225512 27 348 1.6 8.0 0.00 0.03 0.03 100 1017.3
20260831225012 28 27 0.0 9.7 0.00 0.03 0.03 100 1017.2
20260831224511 27 333 1.6 9.7 0.00 0.03 0.03 100 1017.3
20260831224012 28 24 4.8 9.7 0.00 0.03 0.03 100 1017.1
20260831223510 28 348 4.8 14.5 0.00 0.03 0.03 100 1017.3
20260831223013 28 34 3.2 14.5 0.00 0.03 0.03 100 1017.3
20260831222512 28 57 1.6 9.7 0.00 0.03 0.03 100 1017.3
20260831222012 28 5 3.2 9.7 0.00 0.03 0.03 100 1017.2
20260831221509 28 36 3.2 9.7 0.00 0.03 0.03 100 1017.2
20260831221010 28 13 3.2 14.5 0.00 0.03 0.03 100 1017.3
20260831220510 28 40 4.8 14.5 0.00 0.03 0.03 100 1017.3
20260831220010 28 347 3.2 9.7 0.00 0.03 0.03 100 1017.4
20260831215511 28 26 1.6 12.9 0.00 0.03 0.03 100 1017.4
20260831215010 28 53 3.2 14.5 0.00 0.03 0.03 100 1017.4
20260831214510 29 13 4.8 14.5 0.00 0.03 0.03 100 1017.4
20260831214008 29 348 3.2 9.7 0.00 0.03 0.03 100 1017.5
20260831213508 29 323 3.2 9.7 0.00 0.03 0.03 100 1017.5
20260831213008 29 360 4.8 9.7 0.00 0.03 0.03 100 1017.5
20260831212511 29 12 3.2 12.9 0.00 0.03 0.03 100 1017.5
20260831212009 29 317 6.4 14.5 0.00 0.03 0.03 100 1017.5
20260831211508 29 5 3.2 14.5 0.00 0.03 0.03 100 1017.4
20260831211008 29 355 4.8 14.5 0.00 0.03 0.03 100 1017.4
20260831210506 29 9 4.8 16.1 0.00 0.03 0.03 100 1017.4
20260831210007 30 14 6.4 16.1 0.00 0.03 0.03 100 1017.4
20260831205507 29 28 3.2 9.7 0.00 0.03 0.03 100 1017.4
20260831205007 29 9 3.2 16.1 0.03 0.03 0.03 100 1017.4
20260831204508 28 360 3.2 16.1 0.03 0.03 0.03 100 1017.4
20260831204006 28 9 6.4 14.5 0.03 0.03 0.03 100 1017.4
20260831203507 28 360 4.8 12.9 0.03 0.03 0.03 100 1017.5
20260831203006 28 13 1.6 8.0 0.03 0.03 0.03 100 1017.4
20260831202505 28 340 1.6 6.4 0.03 0.03 0.03 100 1017.4
20260831202006 28 302 0.0 3.2 0.03 0.03 0.03 100 1017.5
20260831201508 27 258 0.0 4.8 0.03 0.03 0.03 100 1017.6
20260831201007 27 233 0.0 8.0 0.03 0.03 0.03 100 1017.6
20260831200505 27 234 1.6 8.0 0.03 0.03 0.03 100 1017.7
20260831200015 27 235 3.2 8.0 0.03 0.03 0.03 100 1017.8
20260831195504 27 221 1.6 6.4 0.03 0.03 0.03 100 1017.9
20260831195004 28 250 0.0 6.4 0.00 0.00 0.00 100 1018.0
20260831194505 28 273 0.0 8.0 0.00 0.00 0.00 100 1018.1
20260831194005 28 236 1.6 8.0 0.00 0.00 0.00 100 1018.1
20260831193506 28 303 0.0 9.7 0.00 0.00 0.00 100 1018.2
20260831193005 29 299 3.2 9.7 0.00 0.00 0.00 100 1018.3
20260831192504 29 325 0.0 6.4 0.00 0.00 0.00 100 1018.3
20260831192004 29 315 0.0 6.4 0.00 0.00 0.00 100 1018.2
20260831191503 29 318 0.0 6.4 0.00 0.00 0.00 100 1018.1
20260831191003 29 316 1.6 6.4 0.00 0.00 0.00 100 1018.1
20260831190503 29 242 1.6 8.0 0.00 0.00 0.00 100 1018.1
20260831190004 30 239 1.6 8.0 0.00 0.00 0.00 100 1018.0
20260831185502 31 244 0.0 8.0 0.00 0.00 0.00 100 1017.9
20260831185001 31 344 1.6 9.7 0.00 0.00 0.00 100 1017.9
20260831184608 32 81 0.0 8.0 0.00 0.00 0.00 100 1017.8
20260831184058 32 30 3.2 8.0 0.00 0.00 0.00 100 1017.9
20260831183556 31 23 1.6 8.0 0.00 0.00 0.00 100 1018.0
20260831183100 31 138 1.6 8.0 0.00 0.00 0.00 100 1018.1
20260831182554 31 21 3.2 14.5 0.00 0.00 0.00 100 1018.2
20260831182053 31 144 4.8 16.1 0.00 0.00 0.00 100 1018.3
20260831181556 32 133 3.2 12.9 0.00 0.00 0.00 100 1018.2
20260831181048 31 26 3.2 16.1 0.00 0.00 0.00 100 1018.3
20260831180547 31 74 1.6 11.3 0.00 0.00 0.00 100 1018.2
20260831180046 31 121 3.2 17.7 0.00 0.00 0.00 100 1018.2
20260831175544 31 119 3.2 17.7 0.00 0.00 0.00 100 1018.2
20260831175043 31 40 4.8 12.9 0.00 0.00 0.00 100 1018.2
20260831174542 31 32 3.2 14.5 0.00 0.00 0.00 100 1018.1
20260831174041 31 51 1.6 14.5 0.00 0.00 0.00 100 1018.2